This is the latest recevied weather packets stored in our database for station/object W8KVG. If no packets are shown the sender has not sent any weather packets the latest 1 day(s).
| Time | Temp. | Humidity | Pressure | Rain* | Wind** | Luminosity | Snow |
|---|---|---|---|---|---|---|---|
| 1778061193 | 13.33° C | 99% | 1004.7 hPa | 0.51 mm | - | 0 W/m² | - |
| 1778060890 | 13.33° C | 99% | 1004.7 hPa | 0.51 mm | - | 0 W/m² | - |
| 1778059983 | 13.33° C | 99% | 1004.8 hPa | 2.29 mm | - | 0 W/m² | - |
| 1778058773 | 13.33° C | 99% | 1005 hPa | 2.29 mm | - | 0 W/m² | - |
| 1778058471 | 13.33° C | 99% | 1004.9 hPa | 1.78 mm | - | 0 W/m² | - |
| 1778057864 | 13.33° C | 99% | 1005.2 hPa | 2.29 mm | - | 0 W/m² | - |
| 1778057257 | 13.33° C | 99% | 1005.4 hPa | 3.05 mm | - | 0 W/m² | - |
| 1778055741 | 13.33° C | 99% | 1005.3 hPa | 3.05 mm | - | 0 W/m² | - |
| 1778055439 | 13.33° C | 99% | 1005.5 hPa | 3.05 mm | - | 0 W/m² | - |
| 1778055136 | 13.33° C | 99% | 1005.3 hPa | 3.56 mm | - | 0 W/m² | - |
| 1778053623 | 13.33° C | 99% | 1005.1 hPa | 0 mm | - | 0 W/m² | - |
| 1778053017 | 13.33° C | 99% | 1005.3 hPa | 0 mm | - | 0 W/m² | - |
| 1778051806 | 13.89° C | 98% | 1005.1 hPa | 0 mm | - | 0 W/m² | - |
| 1778050596 | 13.89° C | 98% | 1005.8 hPa | 0 mm | - | 0 W/m² | - |
| 1778050292 | 13.89° C | 98% | 1005.8 hPa | 0 mm | - | 0 W/m² | - |
| 1778049989 | 13.89° C | 98% | 1005.9 hPa | 0.51 mm | - | 0 W/m² | - |
| 1778049684 | 13.89° C | 98% | 1005.7 hPa | 1.27 mm | - | 0 W/m² | - |
| 1778049383 | 13.89° C | 97% | 1005.9 hPa | 1.27 mm | - | 0 W/m² | - |
| 1778048778 | 14.44° C | 97% | 1006.1 hPa | 0.51 mm | - | 0 W/m² | - |
| 1778048475 | 14.44° C | 98% | 1006.1 hPa | 0.51 mm | - | 0 W/m² | - |
| 1778047567 | 13.89° C | 99% | 1006.4 hPa | 1.27 mm | - | 0 W/m² | - |
| 1778046961 | 13.89° C | 99% | 1006.6 hPa | 1.27 mm | - | 0 W/m² | - |
| 1778046657 | 13.89° C | 99% | 1006.9 hPa | 1.27 mm | - | 0 W/m² | - |
| 1778046354 | 14.44° C | 99% | 1006.8 hPa | 1.27 mm | - | 0 W/m² | - |
| 1778046050 | 14.44° C | 99% | 1006.9 hPa | 0.51 mm | - | 0 W/m² | - |
* Rain latest hour (hover to see other rain measurements)
** Current wind speed in m/s (hover to see current wind gust speed)